DateTime,Index
2002082500,0.0
2002082506,0.0
2002082512,0.0
2002082518,0.0
2002082600,0.0
2002082606,0.0
2002082612,0.0
2002082618,0.0
2002082700,0.0
2002082706,1600.0
2002082712,3600.0
2002082718,3600.0
2002082800,4225.0
2002082806,4225.0
2002082812,5625.0
2002082818,5625.0
2002082900,5625.0
2002082906,8100.0
2002082912,8100.0
2002082918,10000.0
2002083000,10000.0
2002083006,11025.0
2002083012,11025.0
2002083018,11025.0
2002083100,12100.0
2002083106,13225.0
2002083112,13225.0
2002083118,13225.0
2002090100,13225.0
2002090106,12100.0
2002090112,11025.0
2002090118,10000.0
2002090200,10000.0
2002090206,12100.0
2002090212,13225.0
2002090218,13225.0
2002090300,13225.0
2002090306,12100.0
2002090312,11025.0
2002090318,10000.0
2002090400,8100.0
2002090406,7225.0
2002090412,6400.0
2002090418,5625.0
2002090500,4900.0
2002090506,4225.0
2002090512,4225.0
2002090518,4225.0
2002090600,4900.0
2002090606,4900.0
2002090612,4900.0
2002090618,4900.0
2002090700,4225.0
2002090706,3600.0
2002090712,3025.0
2002090718,2025.0
2002090800,1600.0
2002090806,1600.0
2002090812,1600.0
2002090818,1225.0
2002090900,1225.0
2002090906,1225.0
2002090912,1225.0
2002090918,0.0
2002091000,0.0
2002091006,0.0
2002091012,0.0
